プライン彗星

P/2019 X1 ( Pruyne )

English version
Home page
Updated on August 15, 2020

---------------------------------------------------------------------

・ プロフィール

発見日 2019年12月2日
発見光度 19.4等
発見者 Theodore A. Pruyne (Mt. Lemmon Survey)

・ 写真集

・ 軌道要素

Epoch 2019 July 16.0 TT = JDT 2458680.5
T 2019 July 22.33600 TT                                 Rudenko
q   4.3055217            (2000.0)            P               Q
n   0.06424975     Peri.   36.92062     +0.16912810     -0.97789452
a   6.1738361      Node    43.72698     +0.85643054     +0.08407525
e   0.3026181      Incl.   10.24634     +0.48777292     +0.19145145
P  15.3
From 117 observations 2003 Nov. 21-2020 May 5, mean residual 0".5.

・ 光度変化

        m1 = 10.0 + 5 logΔ + 10.0 log r

---------------------------------------------------------------------

軌道要素はM.P.E.C. 2020-K117に掲載されたものです。
光度グラフはComet for Windowsで作成したものです。

---------------------------------------------------------------------

Copyright(C) Seiichi Yoshida (comet@aerith.net). All rights reserved.